Location: Beekmeers
(50.8953°N, 3.6968°E)
Time: 03:30:22
(UTC+00:00)

BREEZE-M DEB (TANK) - Pass Details

Date: 23 May 2024
Orbit: 290 x 16912 km, 49.4° (Epoch: 17 June)

Event Time Altitude Azimuth Distance (km) Brightness Sun altitude
Rises 00:00:40 0° 276° (W) 2,028 5.8 -18.4°
Enters shadow 00:00:51 - 276° (W) 1,935 5.6 -18.3°
Exits shadow 00:05:28 35° 154° (SSE) 1,021 3.7 -18.3°
Drops below altitude 10° 00:10:14 10° 123° (ESE) 3,234 6.5 -18.2°
Sets 00:15:44 0° 119° (ESE) 5,783 7.8 -18.1°
